[[{"header":{"parameterUnit":"m.s-1","parameterCategory":1,"la1":30.2991,"la2":30.254,"lo1":-89.0895,"lo2":-89.0444,"dy":0.0017,"dx":0.0017,"nx":28,"ny":28,"refTime":"2024-08-14T03:00:00:Z","depth":0,"parameterNumber":2,"parameterNumberName":"U-component_of_WINDS"},"data":[0,0,0,0,0,0,0,0,0,0,0,0,0,0,0,0,0,0,0,0,0,0,0,0,0,0,0,0,0,0,0,0,0,0,0,0,0,0,0,0,0,0,0,0,0,0,0,0,0,0,0,0,0,0,0,0,0,0,0.2172,0.2171,0,0.2116,0.2115,0.2115,0.2039,0.2037,0.2036,0.2035,0.1979,0.1979,0.1978,0,0,0,0,0,0,0,0,0,0,0,0,0,0.2214,0.2214,0.2172,0.2171,0.217,0.2116,0.2115,0.2114,0.2039,0.2037,0.2036,0.2034,0.1979,0.1979,0.1978,0,0,0,0,0,0,0,0,0,0,0,0,0,0.2181,0.2214,0.2172,0.2126,0.2121,0.2116,0.2115,0.2114,0.2039,0.2037,0.2035,0.2034,0.1979,0.1979,0.1978,0.2014,0,0,0.1977,0.1977,0,0,0,0,0,0,0,0,0.2183,0.2179,0.2133,0.2129,0.2124,0.2082,0.2109,0.2081,0.204,0.207,0.2035,0.2033,0.2015,0.2011,0.2005,0.2011,0.2009,0.1977,0.1976,0.1976,0.1976,0,0,0,0,0,0,0,0.2185,0.2181,0.215,0.2133,0.2127,0.2109,0.2102,0.2104,0.2054,0.2068,0.2062,0.2056,0.2012,0.2006,0.2003,0.2008,0.1977,0.1976,0.1976,0.1976,0.204,0.2042,0,0,0,0,0,0,0.2194,0.2184,0.2151,0.2148,0.2149,0.2109,0.2102,0.2098,0.2054,0.2045,0.2058,0.2053,0.2007,0.2004,0.2001,0.204,0.1976,0.1976,0.1976,0.2038,0.2041,0.2043,0,0,0,0,0,0,0.2195,0.2192,0.2154,0.2164,0.2158,0.2111,0.2107,0.2097,0.2091,0.2047,0.2037,0.2061,0.2006,0.2002,0.2011,0.2037,0.1976,0.1975,0.2036,0.2039,0.2042,0.2118,0,0,0,0,0,0,0.2197,0.2193,0.2206,0.2165,0.2158,0.2165,0.2108,0.2098,0.209,0.2083,0.2047,0.2039,0.2004,0.2012,0.2011,0.2035,0.1975,0.2033,0.2037,0.2041,0.2113,0.2124,0.2132,0,0,0,0,0,0.2199,0.2229,0.2207,0.2203,0.2172,0.2166,0.2162,0.2121,0.2093,0.2106,0.2077,0.204,0.2034,0.2014,0.2011,0.2036,0.2032,0.2036,0.2041,0.2109,0.2122,0.2132,0,0,0,0,0,0,0.2274,0.2223,0.2197,0.2216,0.2196,0.2153,0.2168,0.2135,0.2123,0.2117,0.2067,0.2059,0.2075,0.2056,0.2035,0.2068,0.2027,0.2032,0.208,0.2092,0.2101,0.2106,0.1974,0,0,0,0,0,0.2293,0.2292,0.2247,0.2268,0.2259,0.2216,0.2211,0.2181,0.2159,0.215,0.2122,0.2102,0.2096,0.2093,0.2084,0.211,0.2101,0.2126,0.2136,0.2144,0.2148,0.2161,0.2172,0.2058,0.2058,0.2057,0,0,0.2332,0.2304,0.2306,0.2283,0.2264,0.2264,0.2209,0.2212,0.2212,0.2151,0.2158,0.2137,0.2111,0.2129,0.2136,0.2114,0.2177,0.2149,0.2156,0.2156,0.2167,0.2178,0.2187,0.2061,0.206,0.206,0,0,0.2404,0.2382,0.2397,0.2379,0.2351,0.2322,0.2326,0.2288,0.2272,0.2278,0.2232,0.2232,0.2222,0.2205,0.2196,0.2261,0.2227,0.226,0.231,0.2323,0.2332,0.234,0.2364,0.2373,0.2264,0.2265,0.2265,0,0.2456,0.2454,0.2409,0.2414,0.2406,0.235,0.2366,0.235,0.2321,0.2317,0.2293,0.2279,0.2258,0.2272,0.2288,0.2282,0.2285,0.2264,0.2334,0.2342,0.2348,0.2371,0.238,0.2269,0.2268,0.2268,0.2267,0,0.252,0.252,0.2535,0.2508,0.2501,0.2512,0.2469,0.2467,0.2438,0.2411,0.2419,0.2391,0.2377,0.2378,0.2349,0.2388,0.2375,0.2344,0.2301,0.2364,0.2384,0.2393,0.2275,0.2273,0.2272,0.2271,0,0,0.2638,0.2586,0.2592,0.258,0.2545,0.2544,0.2552,0.2537,0.2537,0.2519,0.2525,0.2518,0.2489,0.2478,0.2447,0.2459,0.2513,0.2425,0.2424,0.2443,0.2555,0.2579,0.259,0.249,0.2492,0.2493,0.2557,0,0.2703,0.2714,0.2674,0.2695,0.2694,0.2642,0.2649,0.2629,0.2604,0.2601,0.2573,0.2569,0.2531,0.2524,0.2533,0.2505,0.2535,0.2499,0.2496,0.2496,0.2505,0.26,0.2626,0.2688,0.2565,0.2566,0.2567,0,0.278,0.2766,0.2788,0.2752,0.275,0.2758,0.2741,0.2738,0.2714,0.2696,0.2684,0.2648,0.2654,0.2614,0.2621,0.2598,0.2594,0.258,0.2582,0.258,0.2536,0.2603,0.2707,0.2717,0.2579,0.2578,0.2577,0,0.2865,0.2852,0.2863,0.2854,0.2812,0.2818,0.2801,0.2775,0.2769,0.2755,0.2751,0.2738,0.2731,0.2722,0.2684,0.2657,0.2696,0.2652,0.2682,0.2683,0.2693,0.2693,0.2799,0.2689,0.2689,0.2689,0.2689,0,0.2943,0.2958,0.29,0.2908,0.2923,0.2877,0.2894,0.2872,0.285,0.2852,0.2805,0.2808,0.2757,0.2755,0.2725,0.2737,0.2733,0.2719,0.2711,0.2724,0.2726,0.2721,0.2716,0.2691,0.2691,0.269,0.269,0,0.3041,0.3002,0.3011,0.2971,0.2961,0.2975,0.2941,0.2946,0.2918,0.2922,0.292,0.2877,0.2872,0.2833,0.2818,0.2798,0.2821,0.2805,0.283,0.2825,0.2856,0.2854,0.2964,0.2977,0.2858,0.286,0.286,0,0.3093,0.3104,0.3065,0.3063,0.3048,0.3045,0.3039,0.2994,0.2989,0.2963,0.2971,0.2962,0.2953,0.2947,0.2915,0.2904,0.2887,0.2926,0.2885,0.2898,0.2888,0.2889,0.289,0.2935,0.2937,0.2938,0.2939,0,0.319,0.3171,0.3163,0.315,0.3143,0.313,0.3114,0.3115,0.3066,0.3063,0.3057,0.305,0.3035,0.3027,0.3011,0.2993,0.2959,0.2952,0.2958,0.2972,0.2986,0.298,0.2855,0.295,0.2949,0.2948,0.2947,0.2947,0.3267,0.3275,0.3249,0.3242,0.3225,0.3211,0.3214,0.3187,0.3181,0.3166,0.314,0.3138,0.3114,0.3088,0.3074,0.3072,0.3051,0.306,0.3063,0.3066,0.3073,0.2986,0.3069,0.3068,0.3068,0.3068,0.3067,0,0.3363,0.3344,0.3338,0.3317,0.3312,0.3279,0.326,0.3258,0.3257,0.3237,0.3229,0.3222,0.3214,0.3181,0.317,0.3175,0.3159,0.3173,0.3173,0.317,0.3092,0.3088,0.3187,0.3187,0.3187,0.3187,0.3187,0.3187,0.3412,0.3423,0.3401,0.3403,0.3383,0.3381,0.3373,0.336,0.3344,0.3339,0.3332,0.3311,0.3286,0.3272,0.3264,0.3254,0.3253,0.3273,0.3259,0.3187,0.3175,0.3164,0.316,0.3273,0.3273,0.3337,0.3337,0.3338]},{"header":{"parameterUnit":"m.s-1","parameterCategory":1,"la1":30.2991,"la2":30.254,"lo1":-89.0895,"lo2":-89.0444,"dy":0.0017,"dx":0.0017,"nx":28,"ny":28,"refTime":"2024-08-14T03:00:00:Z","depth":0,"parameterNumber":3,"parameterNumberName":"V-component_of_WINDS"},"data":[0,0,0,0,0,0,0,0,0,0,0,0,0,0,0,0,0,0,0,0,0,0,0,0,0,0,0,0,0,0,0,0,0,0,0,0,0,0,0,0,0,0,0,0,0,0,0,0,0,0,0,0,0,0,0,0,0,0,-1.3872,-1.3872,0,-1.3866,-1.3866,-1.3866,-1.3819,-1.3818,-1.3817,-1.3816,-1.381,-1.3811,-1.3812,0,0,0,0,0,0,0,0,0,0,0,0,0,-1.3844,-1.3845,-1.3872,-1.3872,-1.3872,-1.3867,-1.3866,-1.3866,-1.3819,-1.3818,-1.3817,-1.3815,-1.381,-1.3811,-1.3812,0,0,0,0,0,0,0,0,0,0,0,0,0,-1.3849,-1.3845,-1.3872,-1.3848,-1.3846,-1.3867,-1.3866,-1.3866,-1.382,-1.3818,-1.3816,-1.3815,-1.3809,-1.381,-1.3812,-1.3855,0,0,-1.3816,-1.3817,0,0,0,0,0,0,0,0,-1.3849,-1.385,-1.3852,-1.385,-1.3847,-1.3842,-1.3854,-1.3863,-1.382,-1.383,-1.3816,-1.3814,-1.3822,-1.3822,-1.3825,-1.3855,-1.3855,-1.3816,-1.3817,-1.3818,-1.3818,0,0,0,0,0,0,0,-1.3849,-1.385,-1.387,-1.3852,-1.3849,-1.3838,-1.3837,-1.3856,-1.3836,-1.3829,-1.3825,-1.3825,-1.382,-1.3824,-1.3824,-1.3855,-1.3816,-1.3817,-1.3818,-1.3819,-1.3923,-1.3925,0,0,0,0,0,0,-1.3852,-1.385,-1.387,-1.387,-1.3844,-1.384,-1.3838,-1.3845,-1.3835,-1.3832,-1.3827,-1.3823,-1.3822,-1.3823,-1.3824,-1.3876,-1.3818,-1.3819,-1.382,-1.3921,-1.3923,-1.3925,0,0,0,0,0,0,-1.3851,-1.3854,-1.387,-1.3859,-1.386,-1.3842,-1.385,-1.3846,-1.3849,-1.3834,-1.383,-1.3834,-1.3821,-1.3822,-1.3848,-1.3875,-1.382,-1.3821,-1.3919,-1.3922,-1.3924,-1.398,0,0,0,0,0,0,-1.3851,-1.3854,-1.387,-1.386,-1.3861,-1.3895,-1.3852,-1.3847,-1.3852,-1.3847,-1.3839,-1.3836,-1.3819,-1.3847,-1.385,-1.3876,-1.3822,-1.3916,-1.392,-1.3923,-1.3975,-1.3984,-1.3991,0,0,0,0,0,-1.385,-1.3885,-1.3871,-1.3874,-1.3881,-1.3896,-1.3897,-1.3877,-1.3854,-1.3871,-1.3861,-1.3837,-1.3871,-1.385,-1.3853,-1.388,-1.3914,-1.3919,-1.3923,-1.3972,-1.3982,-1.3991,0,0,0,0,0,0,-1.3898,-1.3883,-1.3867,-1.39,-1.39,-1.3888,-1.3908,-1.3888,-1.3895,-1.389,-1.3864,-1.3863,-1.3894,-1.3889,-1.3865,-1.3923,-1.3889,-1.3894,-1.3925,-1.3935,-1.3943,-1.3944,-1.3823,0,0,0,0,0,-1.3913,-1.3926,-1.3913,-1.3943,-1.3944,-1.3926,-1.3932,-1.3917,-1.3916,-1.3915,-1.3907,-1.3907,-1.3918,-1.3926,-1.3935,-1.3974,-1.3973,-1.3994,-1.4002,-1.4009,-1.4014,-1.4037,-1.4047,-1.394,-1.394,-1.394,0,0,-1.3943,-1.3936,-1.3946,-1.3953,-1.3951,-1.3967,-1.3926,-1.3944,-1.3956,-1.3918,-1.3943,-1.3937,-1.3935,-1.3969,-1.3983,-1.3966,-1.4044,-1.4015,-1.402,-1.4022,-1.4042,-1.4053,-1.4062,-1.3943,-1.3942,-1.3942,0,0,-1.4006,-1.4002,-1.4028,-1.4027,-1.4025,-1.4013,-1.402,-1.4011,-1.4006,-1.4031,-1.4004,-1.4017,-1.4036,-1.4037,-1.404,-1.4106,-1.4084,-1.4109,-1.4152,-1.4174,-1.4182,-1.419,-1.4215,-1.4224,-1.4114,-1.4114,-1.4114,0,-1.4044,-1.4066,-1.4044,-1.4064,-1.4069,-1.4035,-1.4063,-1.4063,-1.4064,-1.4068,-1.4048,-1.4073,-1.4069,-1.4104,-1.412,-1.4123,-1.413,-1.411,-1.4183,-1.419,-1.4197,-1.4221,-1.423,-1.4117,-1.4117,-1.4117,-1.4116,0,-1.4114,-1.413,-1.4151,-1.4154,-1.416,-1.4184,-1.4166,-1.4176,-1.416,-1.4151,-1.4178,-1.4172,-1.4181,-1.4188,-1.4172,-1.4221,-1.421,-1.4187,-1.4153,-1.4211,-1.4233,-1.4242,-1.4122,-1.4121,-1.412,-1.4119,0,0,-1.4207,-1.4198,-1.4206,-1.4208,-1.4204,-1.4216,-1.4239,-1.4248,-1.4258,-1.4259,-1.4279,-1.4297,-1.4276,-1.4279,-1.4264,-1.4283,-1.4339,-1.4258,-1.4258,-1.4275,-1.4394,-1.4413,-1.4423,-1.4324,-1.4326,-1.4327,-1.4395,0,-1.4269,-1.4307,-1.4289,-1.433,-1.4345,-1.4315,-1.4335,-1.4335,-1.4328,-1.434,-1.4332,-1.4346,-1.4316,-1.4318,-1.4336,-1.4328,-1.4362,-1.4323,-1.4343,-1.4344,-1.4346,-1.4435,-1.4454,-1.4518,-1.4403,-1.4404,-1.4405,0,-1.4346,-1.4353,-1.4396,-1.4391,-1.4397,-1.4415,-1.4423,-1.4435,-1.4435,-1.4428,-1.4433,-1.4414,-1.4437,-1.4402,-1.4435,-1.4408,-1.4415,-1.4413,-1.4415,-1.4417,-1.4379,-1.4441,-1.4538,-1.4548,-1.4419,-1.4417,-1.4417,0,-1.4413,-1.4432,-1.4461,-1.4463,-1.4457,-1.4471,-1.447,-1.4468,-1.4476,-1.4482,-1.4487,-1.4496,-1.4502,-1.451,-1.4494,-1.447,-1.4529,-1.4493,-1.4525,-1.4526,-1.454,-1.454,-1.4641,-1.4542,-1.4542,-1.4542,-1.4542,0,-1.4485,-1.4513,-1.4491,-1.4508,-1.4539,-1.4518,-1.4549,-1.4544,-1.4544,-1.4561,-1.4535,-1.4551,-1.4529,-1.4543,-1.4531,-1.4561,-1.4563,-1.4559,-1.4556,-1.4562,-1.4563,-1.4568,-1.4563,-1.4544,-1.4544,-1.4543,-1.4543,0,-1.4564,-1.455,-1.458,-1.4573,-1.4572,-1.4595,-1.4589,-1.4606,-1.4597,-1.4619,-1.4623,-1.4609,-1.4625,-1.461,-1.4625,-1.4617,-1.4657,-1.4647,-1.4658,-1.4655,-1.469,-1.4687,-1.4799,-1.4813,-1.4704,-1.4705,-1.4706,0,-1.4612,-1.4633,-1.4629,-1.4639,-1.4639,-1.4655,-1.4662,-1.4643,-1.4652,-1.4655,-1.4672,-1.4686,-1.4696,-1.4724,-1.4715,-1.4727,-1.4718,-1.4756,-1.4719,-1.4726,-1.4721,-1.4721,-1.4723,-1.4764,-1.4765,-1.4766,-1.4767,0,-1.4699,-1.4691,-1.4704,-1.4714,-1.4724,-1.4732,-1.4737,-1.4746,-1.4726,-1.4738,-1.4755,-1.4763,-1.4779,-1.4794,-1.4804,-1.4803,-1.4783,-1.4779,-1.4787,-1.4795,-1.4802,-1.4801,-1.468,-1.4777,-1.4776,-1.4775,-1.4774,-1.4774,-1.4765,-1.4783,-1.4784,-1.4799,-1.4801,-1.4807,-1.4823,-1.4817,-1.483,-1.4842,-1.483,-1.4851,-1.4852,-1.4863,-1.4865,-1.4881,-1.4865,-1.4877,-1.4881,-1.4884,-1.489,-1.4798,-1.4883,-1.4882,-1.4882,-1.4882,-1.4882,0,-1.4852,-1.4852,-1.4866,-1.4875,-1.4887,-1.4867,-1.4872,-1.4884,-1.4903,-1.4906,-1.4917,-1.4937,-1.4952,-1.4946,-1.4959,-1.4974,-1.4965,-1.4978,-1.4978,-1.4978,-1.4903,-1.4895,-1.4985,-1.4985,-1.4985,-1.4985,-1.4985,-1.4985,-1.4899,-1.493,-1.4923,-1.4955,-1.4954,-1.4974,-1.498,-1.4985,-1.4988,-1.5012,-1.5025,-1.502,-1.502,-1.5034,-1.5047,-1.5045,-1.5051,-1.5068,-1.5063,-1.4993,-1.4983,-1.4973,-1.4966,-1.507,-1.507,-1.5137,-1.5138,-1.5138]}]]